CZ-6A DEB, 54312

Orbit data source: Space-Track

CZ-6A DEB, 54312 is space debris in SSO originally from a launch on Fri, 11 Nov 2022 UTC launched from the Taiyaun Space Center, China (TSC). Debris objects in space refer to the collection of defunct objects orbiting the Earth. Examples of debris include non-operational satellites, rocket bodies, and fragments generated from explosions, collisions, or faulty payload assembly.

Loading next visibility...
Identifier
54312, 2022-151BF
Orbit
SSO
Country
Flag of CNCN / PRC
Related business
Manufacturer
SAST
Mission
Spacecraft
Bus & Motor
Unknown
Mass
Unknown
Launch date (UTC)
2022-11-11 (4 years ago)
Launch vehicle
Unknown
Launch site
Taiyaun Space Center, China (TSC)
Object type
Payload
Rocket body
Debris
Shape & HBR
Unknown shape, 0.1 m
Radar Cross Section
Medium (>0.1 m² and <1 m²)

Expand to show TLE details & history
Last TLE update: 2 days ago

TLE from 2 days ago
0 CZ-6A DEB
1 54312U 22151BF  26262.94129432  .00001072  00000-0  42369-3 0  9995
2 54312  98.8721 315.3316 0022484 217.3591 142.6028 14.31007613200069
Epoch: 2026-09-19T22:35Z
TLE epoch observation values (Epoch: 2026-09-19T22:35:27.829Z)
Latitude
-0.00006°
Longitude
-22.37695°
Altitude
804.106 km
Speed
7.445 km/s
True Right ascension
21h 01m 19s
True Declination
0° 00' 00"
Sunlit
Object was in full shadow at epoch
Visualization orbit readout
Latitude
Unknown
Longitude
Unknown
Altitude
Unknown
Speed
Unknown
Apparent Right ascension
Unknown
Apparent Declination
Unknown
Sunlit
N/A
Visualization observer readout
Local Sidereal Time
14:07:47
Azimuth
Unknown
Elevation
Unknown
Doppler factor
Unknown
Orbital elements
Apogee altitude
801.623 km
Perigee altitude
769.41 km
Semi-major axis
7,163.654 km
Eccentricity
0.00225
Inclination
98.8721°
RAAN
315.3316°
Arg. of periapsis
217.3591°
True anomaly
142.75893°
Mean anomaly
142.6028°
Eccentric anomaly
142.6809°
Mean motion
3.57966 °/min
Orbital period
100.57 mins
BSTAR
0.00042369
Loading maneuver chart data...
Computing Atmospheric mass density...
Loading historical data...
Loading historical data...
Loading historical data...
Loading historical data...
Loading historical data...
Loading historical data...
Loading historical data...

Documentation

Showing up to 5 results
|